Regional Weather Roundup
Issued by NWS Newport/Morehead, NC

Home | Current Version | Previous Version | Text Only | Print | Product List | Glossary On
Versions: 1 2 3 4 5 6 7 8 9 10 11 12 13 14 15 16 17 18 19 20 21 22 23 24 25 26 27 28 29 30 31 32 33 34 35 36 37 38 39 40 41 42 43 44 45 46 47 48 49 50
000
ASUS42 KMHX 220225
RWRMHX
WEATHER ROUNDUP FOR EASTERN NORTH CAROLINA
NATIONAL WEATHER SERVICE NEWPORT/MOREHEAD CITY NC
900 PM EST TUE NOV 21 2017

NOTE: "FAIR" INDICATES FEW OR NO CLOUDS BELOW 12,000 FEET
WITH NO SIGNIFICANT WEATHER AND/OR OBSTRUCTIONS TO VISIBILITY

NCZ015>017-031-032-045>047-102-103-220300-
NORTH COAST

CITY           SKY/WX    TMP DP  RH WIND       PRES   REMARKS
EDENTON        CLOUDY    56  50  80 CALM      30.09F
ELIZABETH CITY CLOUDY    61  55  81 SE14      30.10F
KITTY HAWK     CLOUDY    61  55  80 CALM      30.09F
MANTEO         CLOUDY    60  55  85 SE7       30.10F

$$

NCZ045>047-081-094-103-104-220300-
CENTRAL COAST

CITY           SKY/WX    TMP DP  RH WIND       PRES   REMARKS
FRISCO         CLOUDY    67  60  78 SE8       30.09F

$$

NCZ095-097-098-100-101-220300-
SOUTHERN COAST

CITY           SKY/WX    TMP DP  RH WIND       PRES   REMARKS
BEAUFORT       CLOUDY    58  56  93 E6        30.06F
CEDAR ISLAND   NOT AVBL
JACKSONVILLE   CLOUDY    58  55  90 NE3       30.05F
PINEY ISLAND     N/A    N/A N/A N/A NE7       30.07F
WILMINGTON     CLOUDY    59  58  96 E5        30.04F


$$

NCZ011>013-027>030-043-044-078>080-089-090>093-098-220300-
COASTAL PLAIN

CITY           SKY/WX    TMP DP  RH WIND       PRES   REMARKS
AHOSKIE        CLOUDY    54  49  83 SE3       30.09F
CLINTON        CLOUDY    57  57 100 CALM      30.05F
ELIZABETHTOWN  NOT AVBL
GOLDSBORO      CLOUDY    57  51  81 SE6       30.04F
GREENVILLE     CLOUDY    55  50  82 CALM      30.08F
HAVELOCK       CLOUDY    56  32  40 CALM      30.08F
KENANSVILLE    CLOUDY    57  52  82 CALM      30.06F
KINSTON        CLOUDY    55  52  88 CALM      30.07F
NEW BERN       CLOUDY    56  52  86 E6        30.08F
RICHLANDS      CLOUDY    57  52  83 NE6       30.06F
ROCKY MOUNT    CLOUDY    54  52  93 CALM      30.07F
WASHINGTON     CLOUDY    52  50  94 CALM      30.08F
WHITEVILLE     CLOUDY    59  56  89 CALM      30.03F

$$

AMZ130-135-150-152-154-156-158-170-250-252-270-ANZ085-086-088-633-658-670-220300-
MARINE OBSERVATIONS

STATION/POSITION TIME  TEMP    WIND        PRES    WAVE   SWELL
                       AIR SEA DIR/SP/G            HT/PER HT/PER
                 (UTC) (F)     (DEG/KT/KT) (MB)    (FT/S) (FT/S)
CHESAPEAKE LIGHT NOT AVBL
64 E VA BEACH    0150   64 64  120/ 10/ 12 1020.8    1/ 8
DUCK             0200   63 60  110/ 12/ 14 1018.9
2 E DUCK         0200      61                N/A     2/12
OREGON INLET     0200   61 54   80/  5/  7 1019.2
13E OREGON INLT  0148      64                N/A     2/ 7   2/ 7
HATTERAS CG      0200   66 59  140/  5/  9 1018.7
DIAMOND BUOY     0210   72 76  150/ 17/ 21 1018.8
CAPE LOOKOUT     0200          120/  7/  8 1018.2
BEAUFORT LAB     0200   61 60  110/  4/  5 1017.9
30 SE NEW RVR IN 0208   69 67  130/ 10/ 14 1017.2
30 SE NEW RVR IN 0130      67                N/A     4/ 5
27 SE WRIGHTSVLE 0208   71 68  140/ 10/ 16 1016.4
5 SE WRIGHTSVLE  0208   67 64  130/  4/  6 1016.9
225 S CAPE HAT   0150   73 76  100/ 19/ 23 1016.8    7/ 7   2/11
41 SE CHARLESTON 0210   67 74  300/ 12/ 17 1015.2

$$




USA.gov is the U.S. government's official web portal to all federal, state and local government web resources and services.